Time,TemperatureF,DewpointF,PressureIn,WindDirection,WindDirectionDegrees,WindSpeedMPH,WindSpeedGustMPH,Humidity,HourlyPrecipIn,Conditions,Clouds,dailyrainin,SoftwareType,DateUTC
2013-02-16 00:03:00,45.3,14.1,30.36,NNW,338,3.5,3.6,28,0.00,CLR,FEW,0.00,WeatherDisplay:10.37,2013-02-16 06:03:00,
2013-02-16 00:08:00,45.3,14.1,30.36,NNW,338,3.5,3.5,28,0.00,CLR,FEW,0.00,WeatherDisplay:10.37,2013-02-16 06:08:00,
2013-02-16 00:13:00,45.3,14.1,30.36,NNW,338,2.3,3.3,28,0.00,CLR,FEW,0.00,WeatherDisplay:10.37,2013-02-16 06:13:00,
2013-02-16 00:18:00,45.3,14.1,30.36,North,0,4.6,4.6,28,0.00,CLR,FEW,0.00,WeatherDisplay:10.37,2013-02-16 06:18:00,
2013-02-16 00:23:00,45.3,14.1,30.36,North,0,1.1,2.6,28,0.00,CLR,FEW,0.00,WeatherDisplay:10.37,2013-02-16 06:23:00,
2013-02-16 00:28:00,45.3,14.1,30.36,North,0,3.5,3.5,28,0.00,CLR,FEW,0.00,WeatherDisplay:10.37,2013-02-16 06:28:00,
2013-02-16 00:33:00,45.3,14.1,30.36,NNW,338,4.6,4.6,28,0.00,CLR,FEW,0.00,WeatherDisplay:10.37,2013-02-16 06:33:00,
2013-02-16 00:38:00,45.3,14.1,30.36,NNW,338,4.6,4.6,28,0.00,CLR,FEW,0.00,WeatherDisplay:10.37,2013-02-16 06:38:00,
2013-02-16 00:43:00,45.3,14.1,30.36,NNW,338,4.6,4.6,28,0.00,CLR,FEW,0.00,WeatherDisplay:10.37,2013-02-16 06:43:00,
2013-02-16 00:48:00,45.3,14.1,30.36,North,0,2.3,2.3,28,0.00,CLR,FEW,0.00,WeatherDisplay:10.37,2013-02-16 06:48:00,
2013-02-16 00:53:00,45.3,14.1,30.36,NE,45,4.6,4.6,28,0.00,CLR,FEW,0.00,WeatherDisplay:10.37,2013-02-16 06:53:00,
2013-02-16 00:58:00,45.3,14.1,30.39,NW,315,1.1,2.0,28,0.00,CLR,FEW,0.00,WeatherDisplay:10.37,2013-02-16 06:58:00,
2013-02-16 01:03:00,45.3,14.1,30.39,WNW,292,3.5,3.5,28,0.00,CLR,FEW,0.00,WeatherDisplay:10.37,2013-02-16 07:03:00,
2013-02-16 01:08:00,45.3,14.1,30.39,North,0,2.3,2.3,28,0.00,CLR,FEW,0.00,WeatherDisplay:10.37,2013-02-16 07:08:00,
2013-02-16 01:13:00,45.3,14.1,30.36,NNW,338,2.9,2.9,28,0.00,CLR,FEW,0.00,WeatherDisplay:10.37,2013-02-16 07:13:00,
2013-02-16 01:18:00,45.3,14.1,30.36,NNW,338,3.5,3.5,28,0.00,CLR,FEW,0.00,WeatherDisplay:10.37,2013-02-16 07:18:00,
2013-02-16 01:23:00,45.3,14.1,30.36,NNW,338,2.3,2.3,28,0.00,CLR,FEW,0.00,WeatherDisplay:10.37,2013-02-16 07:23:00,
2013-02-16 01:28:00,45.3,14.1,30.36,NNW,338,2.3,2.4,28,0.00,CLR,FEW,0.00,WeatherDisplay:10.37,2013-02-16 07:28:00,
2013-02-16 01:33:00,45.3,14.1,30.36,NNW,338,2.6,2.6,28,0.00,CLR,FEW,0.00,WeatherDisplay:10.37,2013-02-16 07:33:00,
2013-02-16 01:38:00,45.3,14.1,30.36,NNW,338,2.3,2.4,28,0.00,CLR,FEW,0.00,WeatherDisplay:10.37,2013-02-16 07:38:00,
2013-02-16 01:43:00,45.3,14.1,30.39,NE,45,2.3,2.3,28,0.00,CLR,FEW,0.00,WeatherDisplay:10.37,2013-02-16 07:43:00,
2013-02-16 01:48:00,45.3,14.1,30.39,NNW,338,1.1,2.0,28,0.00,CLR,FEW,0.00,WeatherDisplay:10.37,2013-02-16 07:48:00,
2013-02-16 01:53:00,45.3,14.1,30.39,NNW,338,1.1,2.0,28,0.00,CLR,FEW,0.00,WeatherDisplay:10.37,2013-02-16 07:53:00,
2013-02-16 01:58:00,45.3,14.1,30.39,NNE,22,2.3,2.6,28,0.00,CLR,FEW,0.00,WeatherDisplay:10.37,2013-02-16 07:58:00,
2013-02-16 02:03:00,45.3,14.1,30.39,NNW,338,2.3,2.4,28,0.00,CLR,FEW,0.00,WeatherDisplay:10.37,2013-02-16 08:03:00,
2013-02-16 02:08:00,45.3,14.1,30.39,North,0,1.6,1.6,28,0.00,CLR,FEW,0.00,WeatherDisplay:10.37,2013-02-16 08:08:00,
2013-02-16 02:13:00,45.3,14.1,30.39,North,0,1.1,1.4,28,0.00,CLR,FEW,0.00,WeatherDisplay:10.37,2013-02-16 08:13:00,
2013-02-16 02:18:00,45.3,14.1,30.39,NW,315,1.1,1.6,28,0.00,CLR,FEW,0.00,WeatherDisplay:10.37,2013-02-16 08:18:00,
2013-02-16 02:23:00,45.3,14.1,30.36,NW,315,1.1,1.6,28,0.00,CLR,FEW,0.00,WeatherDisplay:10.37,2013-02-16 08:23:00,
2013-02-16 02:28:00,45.3,14.1,30.36,NW,315,1.1,1.6,28,0.00,CLR,FEW,0.00,WeatherDisplay:10.37,2013-02-16 08:28:00,
2013-02-16 02:33:00,45.3,14.1,30.36,NW,315,1.1,1.6,28,0.00,CLR,FEW,0.00,WeatherDisplay:10.37,2013-02-16 08:33:00,
2013-02-16 02:38:00,45.3,14.1,30.36,NW,315,1.1,1.6,28,0.00,CLR,FEW,0.00,WeatherDisplay:10.37,2013-02-16 08:38:00,
2013-02-16 02:43:00,45.3,14.1,30.36,NW,315,0.0,0.0,28,0.00,CLR,FEW,0.00,WeatherDisplay:10.37,2013-02-16 08:43:00,
2013-02-16 02:49:00,45.3,14.1,30.36,NW,315,0.0,0.0,28,0.00,CLR,FEW,0.00,WeatherDisplay:10.37,2013-02-16 08:49:00,
2013-02-16 02:54:00,45.3,14.1,30.39,NW,315,0.0,0.0,28,0.00,CLR,FEW,0.00,WeatherDisplay:10.37,2013-02-16 08:54:00,
2013-02-16 02:59:00,45.3,14.1,30.39,NNW,338,1.1,1.4,28,0.00,CLR,FEW,0.00,WeatherDisplay:10.37,2013-02-16 08:59:00,
2013-02-16 03:04:00,45.3,14.1,30.39,NNW,338,1.1,1.4,28,0.00,CLR,FEW,0.00,WeatherDisplay:10.37,2013-02-16 09:04:00,
2013-02-16 03:09:00,45.3,14.1,30.36,NW,315,2.3,2.3,28,0.00,CLR,FEW,0.00,WeatherDisplay:10.37,2013-02-16 09:09:00,
2013-02-16 03:14:00,45.3,14.1,30.36,NW,315,2.3,2.3,28,0.00,CLR,FEW,0.00,WeatherDisplay:10.37,2013-02-16 09:14:00,
2013-02-16 03:19:00,45.3,14.1,30.36,NW,315,2.3,2.3,28,0.00,CLR,FEW,0.00,WeatherDisplay:10.37,2013-02-16 09:19:00,
2013-02-16 03:24:00,45.3,14.1,30.36,NW,315,2.3,2.3,28,0.00,CLR,FEW,0.00,WeatherDisplay:10.37,2013-02-16 09:24:00,
2013-02-16 03:29:00,45.3,14.1,30.36,NW,315,2.3,2.3,28,0.00,CLR,FEW,0.00,WeatherDisplay:10.37,2013-02-16 09:29:00,
2013-02-16 03:34:00,45.3,14.1,30.36,NW,315,2.3,2.3,28,0.00,CLR,FEW,0.00,WeatherDisplay:10.37,2013-02-16 09:34:00,
2013-02-16 03:39:00,38.1,8.6,30.39,NW,315,2.3,2.3,29,0.00,CLR,FEW,0.00,WeatherDisplay:10.37,2013-02-16 09:39:00,
2013-02-16 03:44:00,38.1,8.6,30.39,NW,315,2.3,2.3,29,0.00,CLR,FEW,0.00,WeatherDisplay:10.37,2013-02-16 09:44:00,
2013-02-16 03:49:00,38.1,8.6,30.39,NW,315,2.3,2.3,29,0.00,CLR,FEW,0.00,WeatherDisplay:10.37,2013-02-16 09:49:00,
2013-02-16 03:54:00,37.8,8.3,30.39,NW,315,2.3,2.3,29,0.00,CLR,FEW,0.00,WeatherDisplay:10.37,2013-02-16 09:54:00,
2013-02-16 03:59:00,37.8,8.3,30.39,NW,315,2.3,2.3,29,0.00,CLR,FEW,0.00,WeatherDisplay:10.37,2013-02-16 09:59:00,
2013-02-16 04:04:00,37.8,8.3,30.39,NW,315,2.3,2.3,29,0.00,CLR,FEW,0.00,WeatherDisplay:10.37,2013-02-16 10:04:00,
2013-02-16 04:09:00,37.8,8.3,30.42,NW,315,2.3,2.3,29,0.00,CLR,FEW,0.00,WeatherDisplay:10.37,2013-02-16 10:09:00,
2013-02-16 04:14:00,37.8,8.3,30.42,NW,315,2.3,2.3,29,0.00,CLR,FEW,0.00,WeatherDisplay:10.37,2013-02-16 10:14:00,
2013-02-16 04:19:00,37.8,8.3,30.42,NW,315,2.3,2.3,29,0.00,CLR,FEW,0.00,WeatherDisplay:10.37,2013-02-16 10:19:00,
2013-02-16 04:24:00,37.8,8.3,30.42,NW,315,2.3,2.3,29,0.00,CLR,FEW,0.00,WeatherDisplay:10.37,2013-02-16 10:24:00,
2013-02-16 04:29:00,37.8,8.3,30.42,NW,315,2.3,2.3,29,0.00,CLR,FEW,0.00,WeatherDisplay:10.37,2013-02-16 10:29:00,
2013-02-16 04:34:00,37.8,8.3,30.42,NW,315,2.3,2.3,29,0.00,CLR,FEW,0.00,WeatherDisplay:10.37,2013-02-16 10:34:00,
2013-02-16 04:39:00,36.0,7.5,30.42,NW,315,2.3,2.3,30,0.00,CLR,FEW,0.00,WeatherDisplay:10.37,2013-02-16 10:39:00,
2013-02-16 04:44:00,36.0,7.5,30.42,NW,315,2.3,2.3,30,0.00,CLR,FEW,0.00,WeatherDisplay:10.37,2013-02-16 10:44:00,
2013-02-16 04:49:00,35.6,7.2,30.42,NW,315,2.3,2.3,30,0.00,CLR,FEW,0.00,WeatherDisplay:10.37,2013-02-16 10:49:00,
2013-02-16 04:54:00,35.4,7.0,30.42,North,0,2.3,0.0,30,0.00,CLR,FEW,0.00,WeatherDisplay:10.37,2013-02-16 10:54:00,
2013-02-16 04:59:00,35.4,7.0,30.42,North,0,0.0,0.0,30,0.00,CLR,FEW,0.00,WeatherDisplay:10.37,2013-02-16 10:59:00,
2013-02-16 05:04:00,35.4,7.0,30.42,North,0,0.0,0.0,30,0.00,CLR,FEW,0.00,WeatherDisplay:10.37,2013-02-16 11:04:00,
2013-02-16 05:09:00,35.4,7.0,30.42,North,0,0.0,0.0,30,0.00,CLR,FEW,0.00,WeatherDisplay:10.37,2013-02-16 11:09:00,
2013-02-16 05:14:00,35.4,7.0,30.42,North,0,0.0,0.0,30,0.00,CLR,FEW,0.00,WeatherDisplay:10.37,2013-02-16 11:14:00,
2013-02-16 05:19:00,35.4,7.0,30.42,North,0,0.0,0.0,30,0.00,CLR,FEW,0.00,WeatherDisplay:10.37,2013-02-16 11:19:00,
2013-02-16 05:24:00,35.4,7.0,30.42,North,0,0.0,0.0,30,0.00,CLR,FEW,0.00,WeatherDisplay:10.37,2013-02-16 11:24:00,
2013-02-16 05:29:00,35.4,7.0,30.42,North,0,0.0,0.0,30,0.00,CLR,FEW,0.00,WeatherDisplay:10.37,2013-02-16 11:29:00,
2013-02-16 05:34:00,34.3,6.1,30.42,North,0,0.0,0.0,30,0.00,CLR,FEW,0.00,WeatherDisplay:10.37,2013-02-16 11:34:00,
2013-02-16 05:39:00,34.0,5.7,30.42,North,0,0.0,0.0,30,0.00,CLR,FEW,0.00,WeatherDisplay:10.37,2013-02-16 11:39:00,
2013-02-16 05:44:00,33.8,5.6,30.42,North,0,0.0,0.0,30,0.00,CLR,FEW,0.00,WeatherDisplay:10.37,2013-02-16 11:44:00,
2013-02-16 05:49:00,33.6,5.4,30.42,North,0,0.0,0.0,30,0.00,CLR,FEW,0.00,WeatherDisplay:10.37,2013-02-16 11:49:00,
2013-02-16 05:54:00,33.4,6.0,30.42,North,0,0.0,0.0,31,0.00,CLR,FEW,0.00,WeatherDisplay:10.37,2013-02-16 11:54:00,
2013-02-16 05:59:00,33.3,5.8,30.42,North,0,0.0,0.0,31,0.00,CLR,FEW,0.00,WeatherDisplay:10.37,2013-02-16 11:59:00,
2013-02-16 06:04:00,33.3,5.8,30.42,North,0,0.0,0.0,31,0.00,CLR,FEW,0.00,WeatherDisplay:10.37,2013-02-16 12:04:00,
2013-02-16 06:09:00,33.3,5.8,30.42,North,0,0.0,0.0,31,0.00,CLR,FEW,0.00,WeatherDisplay:10.37,2013-02-16 12:09:00,
2013-02-16 06:14:00,33.1,5.7,30.42,North,0,0.0,0.0,31,0.00,CLR,FEW,0.00,WeatherDisplay:10.37,2013-02-16 12:14:00,
2013-02-16 06:19:00,32.9,5.5,30.42,North,0,0.0,0.0,31,0.00,CLR,FEW,0.00,WeatherDisplay:10.37,2013-02-16 12:19:00,
2013-02-16 06:24:00,32.9,5.5,30.44,North,0,0.0,0.0,31,0.00,CLR,FEW,0.00,WeatherDisplay:10.37,2013-02-16 12:24:00,
2013-02-16 06:29:00,32.9,5.5,30.44,North,0,0.0,0.0,31,0.00,CLR,FEW,0.00,WeatherDisplay:10.37,2013-02-16 12:29:00,
2013-02-16 06:34:00,32.9,5.5,30.44,North,0,0.0,0.0,31,0.00,CLR,FEW,0.00,WeatherDisplay:10.37,2013-02-16 12:34:00,
2013-02-16 06:39:00,32.9,5.5,30.44,North,0,0.0,0.0,31,0.00,CLR,FEW,0.00,WeatherDisplay:10.37,2013-02-16 12:39:00,
2013-02-16 06:44:00,32.9,5.5,30.44,North,0,0.0,0.0,31,0.00,CLR,FEW,0.00,WeatherDisplay:10.37,2013-02-16 12:44:00,
2013-02-16 06:49:00,32.7,5.4,30.44,North,0,0.0,0.0,31,0.00,CLR,FEW,0.00,WeatherDisplay:10.37,2013-02-16 12:49:00,
2013-02-16 06:54:00,32.7,5.4,30.44,North,0,0.0,0.0,31,0.00,CLR,FEW,0.00,WeatherDisplay:10.37,2013-02-16 12:54:00,
2013-02-16 06:59:00,32.7,5.4,30.44,North,0,0.0,0.0,31,0.00,CLR,FEW,0.00,WeatherDisplay:10.37,2013-02-16 12:59:00,
2013-02-16 07:04:00,32.7,5.4,30.44,North,0,0.0,0.0,31,0.00,CLR,FEW,0.00,WeatherDisplay:10.37,2013-02-16 13:04:00,
2013-02-16 07:09:00,32.7,5.4,30.44,North,0,0.0,0.0,31,0.00,CLR,FEW,0.00,WeatherDisplay:10.37,2013-02-16 13:09:00,
2013-02-16 07:14:00,32.7,5.4,30.44,North,0,0.0,0.0,31,0.00,CLR,FEW,0.00,WeatherDisplay:10.37,2013-02-16 13:14:00,
2013-02-16 07:19:00,32.4,5.7,30.44,North,0,0.0,0.0,32,0.00,CLR,FEW,0.00,WeatherDisplay:10.37,2013-02-16 13:19:00,
2013-02-16 07:24:00,32.4,5.7,30.42,North,0,0.0,0.0,32,0.00,CLR,FEW,0.00,WeatherDisplay:10.37,2013-02-16 13:24:00,
2013-02-16 07:29:00,32.4,5.7,30.42,North,0,0.0,0.0,32,0.00,CLR,FEW,0.00,WeatherDisplay:10.37,2013-02-16 13:29:00,
2013-02-16 07:34:00,32.4,5.7,30.42,North,0,0.0,0.0,32,0.00,CLR,FEW,0.00,WeatherDisplay:10.37,2013-02-16 13:34:00,
2013-02-16 07:39:00,32.7,5.4,30.44,North,0,0.0,0.0,31,0.00,CLR,FEW,0.00,WeatherDisplay:10.37,2013-02-16 13:39:00,
2013-02-16 07:44:00,32.9,5.5,30.44,North,0,0.0,0.0,31,0.00,CLR,FEW,0.00,WeatherDisplay:10.37,2013-02-16 13:44:00,
2013-02-16 07:49:00,33.1,6.4,30.44,North,0,0.0,0.0,32,0.00,CLR,FEW,0.00,WeatherDisplay:10.37,2013-02-16 13:49:00,
2013-02-16 07:55:00,33.4,6.7,30.44,North,0,0.0,0.0,32,0.00,CLR,FEW,0.00,WeatherDisplay:10.37,2013-02-16 13:55:00,
2013-02-16 08:00:00,34.0,7.2,30.44,North,0,0.0,0.0,32,0.00,CLR,FEW,0.00,WeatherDisplay:10.37,2013-02-16 14:00:00,
2013-02-16 08:05:00,34.2,7.3,30.44,North,0,0.0,0.0,32,0.00,CLR,FEW,0.00,WeatherDisplay:10.37,2013-02-16 14:05:00,
2013-02-16 08:10:00,35.4,7.7,30.48,North,0,0.0,0.0,31,0.00,CLR,FEW,0.00,WeatherDisplay:10.37,2013-02-16 14:10:00,
2013-02-16 08:15:00,36.5,8.7,30.48,North,0,0.0,0.0,31,0.00,CLR,FEW,0.00,WeatherDisplay:10.37,2013-02-16 14:15:00,
2013-02-16 08:20:00,37.4,8.7,30.48,NNW,338,1.1,2.2,30,0.00,CLR,FEW,0.00,WeatherDisplay:10.37,2013-02-16 14:20:00,
2013-02-16 08:25:00,37.4,8.7,30.50,NNW,338,1.1,2.2,30,0.00,CLR,FEW,0.00,WeatherDisplay:10.37,2013-02-16 14:25:00,
2013-02-16 08:30:00,37.4,8.7,30.50,NNW,338,1.1,2.2,30,0.00,CLR,FEW,0.00,WeatherDisplay:10.37,2013-02-16 14:30:00,
2013-02-16 08:35:00,37.4,8.7,30.50,NNW,338,1.1,2.2,30,0.00,CLR,FEW,0.00,WeatherDisplay:10.37,2013-02-16 14:35:00,
2013-02-16 08:40:00,37.4,8.7,30.50,NNE,22,2.3,2.3,30,0.00,CLR,FEW,0.00,WeatherDisplay:10.37,2013-02-16 14:40:00,
2013-02-16 08:45:00,38.8,9.2,30.50,WNW,292,2.3,2.3,29,0.00,CLR,FEW,0.00,WeatherDisplay:10.37,2013-02-16 14:45:00,
2013-02-16 08:50:00,38.8,9.2,30.50,NNW,338,2.3,2.3,29,0.00,CLR,FEW,0.00,WeatherDisplay:10.37,2013-02-16 14:50:00,
2013-02-16 08:55:00,38.8,9.2,30.50,North,0,2.3,2.3,29,0.00,CLR,FEW,0.00,WeatherDisplay:10.37,2013-02-16 14:55:00,
2013-02-16 09:00:00,38.8,9.2,30.50,North,0,0.0,1.4,29,0.00,CLR,FEW,0.00,WeatherDisplay:10.37,2013-02-16 15:00:00,
2013-02-16 09:05:00,38.8,9.2,30.50,NNW,338,3.5,3.5,29,0.00,CLR,FEW,0.00,WeatherDisplay:10.37,2013-02-16 15:05:00,
2013-02-16 09:10:00,38.8,9.2,30.48,WNW,292,2.3,2.4,29,0.00,CLR,FEW,0.00,WeatherDisplay:10.37,2013-02-16 15:10:00,
2013-02-16 09:15:00,38.8,9.2,30.48,North,0,3.5,3.5,29,0.00,CLR,FEW,0.00,WeatherDisplay:10.37,2013-02-16 15:15:00,
2013-02-16 09:20:00,40.8,10.2,30.48,North,0,3.5,3.5,28,0.00,CLR,FEW,0.00,WeatherDisplay:10.37,2013-02-16 15:20:00,
2013-02-16 09:25:00,40.8,10.2,30.48,North,0,2.3,3.3,28,0.00,CLR,FEW,0.00,WeatherDisplay:10.37,2013-02-16 15:25:00,
2013-02-16 09:30:00,41.7,8.4,30.48,NNE,22,2.3,2.6,25,0.00,CLR,FEW,0.00,WeatherDisplay:10.37,2013-02-16 15:30:00,
2013-02-16 09:35:00,41.7,8.4,30.48,NNE,22,2.3,2.6,25,0.00,CLR,FEW,0.00,WeatherDisplay:10.37,2013-02-16 15:35:00,
2013-02-16 09:40:00,42.4,9.0,30.44,NNW,338,2.3,3.3,25,0.00,CLR,FEW,0.00,WeatherDisplay:10.37,2013-02-16 15:40:00,
2013-02-16 09:45:00,42.4,9.0,30.44,NNW,338,2.3,3.3,25,0.00,CLR,FEW,0.00,WeatherDisplay:10.37,2013-02-16 15:45:00,
2013-02-16 09:50:00,42.4,9.0,30.44,NE,45,3.5,3.5,25,0.00,CLR,FEW,0.00,WeatherDisplay:10.37,2013-02-16 15:50:00,
2013-02-16 09:55:00,42.4,9.0,30.44,North,0,3.5,3.5,25,0.00,CLR,FEW,0.00,WeatherDisplay:10.37,2013-02-16 15:55:00,
2013-02-16 10:00:00,42.4,9.0,30.44,NNW,338,4.6,4.6,25,0.00,CLR,FEW,0.00,WeatherDisplay:10.37,2013-02-16 16:00:00,
2013-02-16 10:05:00,42.4,9.0,30.44,NNW,338,3.5,3.5,25,0.00,CLR,FEW,0.00,WeatherDisplay:10.37,2013-02-16 16:05:00,
2013-02-16 10:10:00,42.4,9.0,30.44,NNW,338,3.5,3.5,25,0.00,CLR,FEW,0.00,WeatherDisplay:10.37,2013-02-16 16:10:00,
2013-02-16 10:15:00,45.0,8.3,30.44,North,0,3.5,3.5,22,0.00,CLR,FEW,0.00,WeatherDisplay:10.37,2013-02-16 16:15:00,
2013-02-16 10:20:00,45.5,7.8,30.44,SE,135,4.6,4.6,21,0.00,CLR,FEW,0.00,WeatherDisplay:10.37,2013-02-16 16:20:00,
2013-02-16 10:25:00,45.7,5.7,30.44,NW,315,2.3,3.3,19,0.00,CLR,FEW,0.00,WeatherDisplay:10.37,2013-02-16 16:25:00,
2013-02-16 10:30:00,45.7,5.7,30.44,NW,315,4.6,4.6,19,0.00,CLR,FEW,0.00,WeatherDisplay:10.37,2013-02-16 16:30:00,
2013-02-16 10:35:00,45.7,5.7,30.44,North,0,5.8,5.8,19,0.00,CLR,FEW,0.00,WeatherDisplay:10.37,2013-02-16 16:35:00,
2013-02-16 10:40:00,46.6,6.4,30.42,East,90,2.3,4.0,19,0.00,CLR,FEW,0.00,WeatherDisplay:10.37,2013-02-16 16:40:00,
2013-02-16 10:45:00,46.9,6.7,30.42,WNW,292,4.6,4.6,19,0.00,CLR,FEW,0.00,WeatherDisplay:10.37,2013-02-16 16:45:00,
2013-02-16 10:50:00,46.9,6.7,30.42,NE,45,5.8,5.8,19,0.00,CLR,FEW,0.00,WeatherDisplay:10.37,2013-02-16 16:50:00,
2013-02-16 10:55:00,47.3,7.0,30.42,North,0,4.0,4.0,19,0.00,CLR,FEW,0.00,WeatherDisplay:10.37,2013-02-16 16:55:00,
2013-02-16 11:00:00,47.3,7.0,30.42,North,0,4.6,4.6,19,0.00,CLR,FEW,0.00,WeatherDisplay:10.37,2013-02-16 17:00:00,
2013-02-16 11:05:00,47.3,7.0,30.42,NE,45,2.3,2.3,19,0.00,CLR,FEW,0.00,WeatherDisplay:10.37,2013-02-16 17:05:00,
2013-02-16 11:10:00,47.3,7.0,30.42,WNW,292,2.3,3.8,19,0.00,CLR,FEW,0.00,WeatherDisplay:10.37,2013-02-16 17:10:00,
2013-02-16 11:15:00,47.3,7.0,30.42,NNW,338,3.5,3.5,19,0.00,CLR,FEW,0.00,WeatherDisplay:10.37,2013-02-16 17:15:00,
2013-02-16 11:20:00,47.3,7.0,30.42,NNW,338,2.3,2.4,19,0.00,CLR,FEW,0.00,WeatherDisplay:10.37,2013-02-16 17:20:00,
2013-02-16 11:25:00,47.3,7.0,30.39,SW,225,0.0,1.6,19,0.00,CLR,FEW,0.00,WeatherDisplay:10.37,2013-02-16 17:25:00,
2013-02-16 11:30:00,47.3,7.0,30.39,SW,225,0.0,1.6,19,0.00,CLR,FEW,0.00,WeatherDisplay:10.37,2013-02-16 17:30:00,
2013-02-16 11:35:00,47.3,7.0,30.39,SW,225,0.0,1.6,19,0.00,CLR,FEW,0.00,WeatherDisplay:10.37,2013-02-16 17:35:00,
2013-02-16 11:40:00,49.8,7.9,30.39,East,90,2.3,3.8,18,0.00,CLR,FEW,0.00,WeatherDisplay:10.37,2013-02-16 17:40:00,
2013-02-16 11:45:00,49.8,7.9,30.39,NNE,22,2.3,2.6,18,0.00,CLR,FEW,0.00,WeatherDisplay:10.37,2013-02-16 17:45:00,
2013-02-16 11:50:00,49.8,7.9,30.39,NNW,338,3.5,3.6,18,0.00,CLR,FEW,0.00,WeatherDisplay:10.37,2013-02-16 17:50:00,
2013-02-16 11:55:00,49.8,7.9,30.39,NNW,338,2.6,3.3,18,0.00,CLR,FEW,0.00,WeatherDisplay:10.37,2013-02-16 17:55:00,
2013-02-16 12:00:00,49.8,7.9,30.39,NW,315,4.6,4.9,18,0.00,CLR,FEW,0.00,WeatherDisplay:10.37,2013-02-16 18:00:00,
2013-02-16 12:05:00,49.8,7.9,30.39,WNW,292,2.9,2.9,18,0.00,CLR,FEW,0.00,WeatherDisplay:10.37,2013-02-16 18:05:00,
2013-02-16 12:10:00,49.8,7.9,30.36,WNW,292,2.3,2.6,18,0.00,CLR,FEW,0.00,WeatherDisplay:10.37,2013-02-16 18:10:00,
2013-02-16 12:15:00,49.8,7.9,30.36,WNW,292,2.3,2.6,18,0.00,CLR,FEW,0.00,WeatherDisplay:10.37,2013-02-16 18:15:00,
2013-02-16 12:20:00,49.8,7.9,30.36,NW,315,4.6,4.6,18,0.00,CLR,FEW,0.00,WeatherDisplay:10.37,2013-02-16 18:20:00,
2013-02-16 12:25:00,49.8,7.9,30.36,NNW,338,4.6,4.9,18,0.00,CLR,FEW,0.00,WeatherDisplay:10.37,2013-02-16 18:25:00,
2013-02-16 12:30:00,49.8,7.9,30.36,West,270,3.5,3.5,18,0.00,CLR,FEW,0.00,WeatherDisplay:10.37,2013-02-16 18:30:00,
2013-02-16 12:35:00,52.3,10.0,30.36,ENE,68,8.5,8.5,18,0.00,CLR,FEW,0.00,WeatherDisplay:10.37,2013-02-16 18:35:00,
2013-02-16 12:40:00,52.2,9.9,30.33,West,270,3.5,5.6,18,0.00,CLR,FEW,0.00,WeatherDisplay:10.37,2013-02-16 18:40:00,
2013-02-16 12:46:00,52.2,9.9,30.33,East,90,6.9,6.9,18,0.00,CLR,FEW,0.00,WeatherDisplay:10.37,2013-02-16 18:46:00,
2013-02-16 12:51:00,52.3,10.0,30.33,East,90,2.3,4.7,18,0.00,CLR,FEW,0.00,WeatherDisplay:10.37,2013-02-16 18:51:00,
2013-02-16 12:56:00,52.9,9.2,30.33,North,0,5.8,5.8,17,0.00,CLR,FEW,0.00,WeatherDisplay:10.37,2013-02-16 18:56:00,
2013-02-16 13:01:00,53.1,9.3,30.33,NW,315,6.9,6.9,17,0.00,CLR,FEW,0.00,WeatherDisplay:10.37,2013-02-16 19:01:00,
2013-02-16 13:06:00,53.1,9.3,30.33,North,0,3.5,4.0,17,0.00,CLR,FEW,0.00,WeatherDisplay:10.37,2013-02-16 19:06:00,
2013-02-16 13:11:00,53.1,9.3,30.30,NNW,338,4.6,4.6,17,0.00,CLR,FEW,0.00,WeatherDisplay:10.37,2013-02-16 19:11:00,
2013-02-16 13:16:00,53.1,9.3,30.30,West,270,4.6,4.6,17,0.00,CLR,FEW,0.00,WeatherDisplay:10.37,2013-02-16 19:16:00,
2013-02-16 13:21:00,53.4,9.6,30.30,West,270,4.6,4.6,17,0.00,CLR,FEW,0.00,WeatherDisplay:10.37,2013-02-16 19:21:00,
2013-02-16 13:26:00,53.8,9.9,30.27,NNW,338,4.6,4.7,17,0.00,CLR,FEW,0.00,WeatherDisplay:10.37,2013-02-16 19:26:00,
2013-02-16 13:31:00,53.8,9.9,30.27,NNW,338,6.9,6.9,17,0.00,CLR,FEW,0.00,WeatherDisplay:10.37,2013-02-16 19:31:00,
2013-02-16 13:36:00,54.3,10.4,30.27,WNW,292,6.9,6.9,17,0.00,CLR,FEW,0.00,WeatherDisplay:10.37,2013-02-16 19:36:00,
2013-02-16 13:41:00,54.5,10.5,30.27,NNW,338,5.8,5.8,17,0.00,CLR,FEW,0.00,WeatherDisplay:10.37,2013-02-16 19:41:00,
2013-02-16 13:46:00,54.5,10.5,30.27,WNW,292,6.9,6.9,17,0.00,CLR,FEW,0.00,WeatherDisplay:10.37,2013-02-16 19:46:00,
2013-02-16 13:51:00,54.1,7.4,30.27,NNE,22,5.8,5.8,15,0.00,CLR,FEW,0.00,WeatherDisplay:10.37,2013-02-16 19:51:00,
2013-02-16 13:56:00,54.1,7.4,30.27,NNW,338,2.3,3.6,15,0.00,CLR,FEW,0.00,WeatherDisplay:10.37,2013-02-16 19:56:00,
2013-02-16 14:01:00,54.7,10.6,30.27,North,0,5.8,5.8,17,0.00,CLR,FEW,0.00,WeatherDisplay:10.37,2013-02-16 20:01:00,
2013-02-16 14:06:00,55.0,10.9,30.27,NNW,338,3.5,3.6,17,0.00,CLR,FEW,0.00,WeatherDisplay:10.37,2013-02-16 20:06:00,
2013-02-16 14:11:00,55.0,6.6,30.27,ENE,68,9.2,9.2,14,0.00,CLR,FEW,0.00,WeatherDisplay:10.37,2013-02-16 20:11:00,
2013-02-16 14:16:00,54.9,6.5,30.27,North,0,5.8,5.8,14,0.00,CLR,FEW,0.00,WeatherDisplay:10.37,2013-02-16 20:16:00,
2013-02-16 14:21:00,54.7,6.3,30.27,WNW,292,3.5,3.5,14,0.00,CLR,FEW,0.00,WeatherDisplay:10.37,2013-02-16 20:21:00,
2013-02-16 14:26:00,55.0,6.6,30.27,NNE,22,5.8,5.8,14,0.00,CLR,FEW,0.00,WeatherDisplay:10.37,2013-02-16 20:26:00,
2013-02-16 14:31:00,54.7,6.3,30.27,NNE,22,7.8,7.8,14,0.00,CLR,FEW,0.00,WeatherDisplay:10.37,2013-02-16 20:31:00,
2013-02-16 14:36:00,54.7,6.3,30.27,North,0,4.9,4.9,14,0.00,CLR,FEW,0.00,WeatherDisplay:10.37,2013-02-16 20:36:00,
2013-02-16 14:41:00,54.9,6.5,30.27,WNW,292,4.6,4.6,14,0.00,CLR,FEW,0.00,WeatherDisplay:10.37,2013-02-16 20:41:00,
2013-02-16 14:46:00,55.0,6.6,30.27,NNW,338,3.5,3.5,14,0.00,CLR,FEW,0.00,WeatherDisplay:10.37,2013-02-16 20:46:00,
2013-02-16 14:51:00,55.2,6.8,30.27,WNW,292,1.1,2.2,14,0.00,CLR,FEW,0.00,WeatherDisplay:10.37,2013-02-16 20:51:00,
2013-02-16 14:56:00,55.2,6.8,30.27,NNW,338,2.3,2.3,14,0.00,CLR,FEW,0.00,WeatherDisplay:10.37,2013-02-16 20:56:00,
2013-02-16 15:01:00,55.8,7.2,30.27,NNW,338,4.6,4.6,14,0.00,CLR,FEW,0.00,WeatherDisplay:10.37,2013-02-16 21:01:00,
2013-02-16 15:06:00,55.8,7.2,30.27,NW,315,6.9,6.9,14,0.00,CLR,FEW,0.00,WeatherDisplay:10.37,2013-02-16 21:06:00,
2013-02-16 15:11:00,55.4,6.9,30.27,North,0,2.3,2.9,14,0.00,CLR,FEW,0.00,WeatherDisplay:10.37,2013-02-16 21:11:00,
2013-02-16 15:16:00,55.6,7.1,30.27,NW,315,5.8,5.8,14,0.00,CLR,FEW,0.00,WeatherDisplay:10.37,2013-02-16 21:16:00,
2013-02-16 15:21:00,55.9,7.3,30.27,NNE,22,3.5,4.3,14,0.00,CLR,FEW,0.00,WeatherDisplay:10.37,2013-02-16 21:21:00,
2013-02-16 15:26:00,55.8,7.2,30.27,North,0,3.5,3.5,14,0.00,CLR,FEW,0.00,WeatherDisplay:10.37,2013-02-16 21:26:00,
2013-02-16 15:31:00,55.9,7.3,30.27,WNW,292,3.5,3.5,14,0.00,CLR,FEW,0.00,WeatherDisplay:10.37,2013-02-16 21:31:00,
2013-02-16 15:36:00,56.1,7.5,30.27,NW,315,2.3,3.8,14,0.00,CLR,FEW,0.00,WeatherDisplay:10.37,2013-02-16 21:36:00,
2013-02-16 15:41:00,55.9,7.3,30.24,WNW,292,4.6,4.6,14,0.00,CLR,FEW,0.00,WeatherDisplay:10.37,2013-02-16 21:41:00,
2013-02-16 15:46:00,55.6,7.1,30.24,NNW,338,5.8,5.8,14,0.00,CLR,FEW,0.00,WeatherDisplay:10.37,2013-02-16 21:46:00,
2013-02-16 15:51:00,55.8,7.2,30.24,NW,315,5.8,5.8,14,0.00,CLR,FEW,0.00,WeatherDisplay:10.37,2013-02-16 21:51:00,
2013-02-16 15:56:00,55.6,7.1,30.27,NW,315,4.6,4.9,14,0.00,CLR,FEW,0.00,WeatherDisplay:10.37,2013-02-16 21:56:00,
2013-02-16 16:01:00,55.6,7.1,30.27,NNW,338,2.9,2.9,14,0.00,CLR,FEW,0.00,WeatherDisplay:10.37,2013-02-16 22:01:00,
2013-02-16 16:06:00,55.9,7.3,30.27,WNW,292,3.5,3.5,14,0.00,CLR,FEW,0.00,WeatherDisplay:10.37,2013-02-16 22:06:00,
2013-02-16 16:11:00,55.9,7.3,30.27,NNW,338,5.8,5.8,14,0.00,CLR,FEW,0.00,WeatherDisplay:10.37,2013-02-16 22:11:00,
2013-02-16 16:16:00,55.8,7.2,30.27,NW,315,3.5,3.5,14,0.00,CLR,FEW,0.00,WeatherDisplay:10.37,2013-02-16 22:16:00,
2013-02-16 16:21:00,55.4,6.9,30.27,North,0,2.3,2.6,14,0.00,CLR,FEW,0.00,WeatherDisplay:10.37,2013-02-16 22:21:00,
2013-02-16 16:26:00,55.2,6.8,30.27,WNW,292,2.3,3.3,14,0.00,CLR,FEW,0.00,WeatherDisplay:10.37,2013-02-16 22:26:00,
2013-02-16 16:31:00,55.0,6.6,30.27,WNW,292,3.5,3.5,14,0.00,CLR,FEW,0.00,WeatherDisplay:10.37,2013-02-16 22:31:00,
2013-02-16 16:36:00,54.7,6.3,30.27,North,0,4.6,4.6,14,0.00,CLR,FEW,0.00,WeatherDisplay:10.37,2013-02-16 22:36:00,
2013-02-16 16:41:00,54.7,6.3,30.27,ENE,68,3.5,3.5,14,0.00,CLR,FEW,0.00,WeatherDisplay:10.37,2013-02-16 22:41:00,
2013-02-16 16:46:00,54.7,6.3,30.27,NNW,338,3.5,3.5,14,0.00,CLR,FEW,0.00,WeatherDisplay:10.37,2013-02-16 22:46:00,
2013-02-16 16:51:00,54.7,6.3,30.27,WNW,292,3.5,3.5,14,0.00,CLR,FEW,0.00,WeatherDisplay:10.37,2013-02-16 22:51:00,
2013-02-16 16:56:00,54.5,6.2,30.27,NW,315,3.5,3.5,14,0.00,CLR,FEW,0.00,WeatherDisplay:10.37,2013-02-16 22:56:00,
2013-02-16 17:01:00,54.5,6.2,30.27,NNE,22,2.3,2.3,14,0.00,CLR,FEW,0.00,WeatherDisplay:10.37,2013-02-16 23:01:00,
2013-02-16 17:06:00,54.5,6.2,30.27,NNW,338,5.8,5.8,14,0.00,CLR,FEW,0.00,WeatherDisplay:10.37,2013-02-16 23:06:00,
2013-02-16 17:11:00,54.5,6.2,30.27,NW,315,2.3,2.3,14,0.00,CLR,FEW,0.00,WeatherDisplay:10.37,2013-02-16 23:11:00,
2013-02-16 17:16:00,54.5,6.2,30.27,NNW,338,3.5,3.5,14,0.00,CLR,FEW,0.00,WeatherDisplay:10.37,2013-02-16 23:16:00,
2013-02-16 17:21:00,54.5,6.2,30.27,NNW,338,2.3,2.3,14,0.00,CLR,FEW,0.00,WeatherDisplay:10.37,2013-02-16 23:21:00,
2013-02-16 17:26:00,54.5,6.2,30.27,NNW,338,2.3,2.3,14,0.00,CLR,FEW,0.00,WeatherDisplay:10.37,2013-02-16 23:26:00,
2013-02-16 17:31:00,54.5,6.2,30.27,North,0,1.1,1.1,14,0.00,CLR,FEW,0.00,WeatherDisplay:10.37,2013-02-16 23:31:00,
2013-02-16 17:36:00,54.5,6.2,30.27,NW,315,1.6,1.6,14,0.00,CLR,FEW,0.00,WeatherDisplay:10.37,2013-02-16 23:36:00,
2013-02-16 17:41:00,54.5,6.2,30.24,North,0,1.1,0.0,14,0.00,CLR,FEW,0.00,WeatherDisplay:10.37,2013-02-16 23:41:00,
2013-02-16 17:46:00,54.5,6.2,30.24,NNW,338,0.0,0.0,14,0.00,CLR,FEW,0.00,WeatherDisplay:10.37,2013-02-16 23:46:00,
2013-02-16 17:51:00,54.5,6.2,30.24,NNW,338,0.0,0.0,14,0.00,CLR,FEW,0.00,WeatherDisplay:10.37,2013-02-16 23:51:00,
2013-02-16 17:56:00,54.5,6.2,30.27,NNW,338,0.0,0.0,14,0.00,CLR,FEW,0.00,WeatherDisplay:10.37,2013-02-16 23:56:00,
2013-02-16 18:01:00,51.4,5.2,30.27,NE,45,0.0,0.0,15,0.00,CLR,FEW,0.00,WeatherDisplay:10.37,2013-02-17 00:01:00,
2013-02-16 18:06:00,51.4,5.2,30.27,NE,45,0.0,0.0,15,0.00,CLR,FEW,0.00,WeatherDisplay:10.37,2013-02-17 00:06:00,
2013-02-16 18:11:00,51.4,5.2,30.27,NE,45,0.0,0.0,15,0.00,CLR,FEW,0.00,WeatherDisplay:10.37,2013-02-17 00:11:00,
2013-02-16 18:16:00,49.5,7.6,30.27,NE,45,0.0,0.0,18,0.00,CLR,FEW,0.00,WeatherDisplay:10.37,2013-02-17 00:16:00,
2013-02-16 18:22:00,48.7,10.5,30.27,East,90,0.0,0.0,21,0.00,CLR,FEW,0.00,WeatherDisplay:10.37,2013-02-17 00:22:00,
2013-02-16 18:27:00,48.4,13.2,30.27,East,90,0.0,0.0,24,0.00,CLR,FEW,0.00,WeatherDisplay:10.37,2013-02-17 00:27:00,
2013-02-16 18:32:00,48.4,13.2,30.27,East,90,0.0,0.0,24,0.00,CLR,FEW,0.00,WeatherDisplay:10.37,2013-02-17 00:32:00,
2013-02-16 18:37:00,46.9,9.0,30.27,East,90,0.0,0.0,21,0.00,CLR,FEW,0.00,WeatherDisplay:10.37,2013-02-17 00:37:00,
2013-02-16 18:42:00,46.2,6.1,30.30,East,90,0.0,0.0,19,0.00,CLR,FEW,0.00,WeatherDisplay:10.37,2013-02-17 00:42:00,
2013-02-16 18:47:00,46.0,6.0,30.30,East,90,0.0,0.0,19,0.00,CLR,FEW,0.00,WeatherDisplay:10.37,2013-02-17 00:47:00,
2013-02-16 18:52:00,45.9,8.1,30.30,East,90,0.0,0.0,21,0.00,CLR,FEW,0.00,WeatherDisplay:10.37,2013-02-17 00:52:00,
2013-02-16 18:57:00,45.9,8.1,30.30,East,90,0.0,0.0,21,0.00,CLR,FEW,0.00,WeatherDisplay:10.37,2013-02-17 00:57:00,
2013-02-16 19:02:00,44.4,7.9,30.30,East,90,0.0,0.0,22,0.00,CLR,FEW,0.00,WeatherDisplay:10.37,2013-02-17 01:02:00,
2013-02-16 19:07:00,44.4,7.9,30.30,East,90,0.0,0.0,22,0.00,CLR,FEW,0.00,WeatherDisplay:10.37,2013-02-17 01:07:00,
2013-02-16 19:12:00,44.4,7.9,30.30,East,90,0.0,0.0,22,0.00,CLR,FEW,0.00,WeatherDisplay:10.37,2013-02-17 01:12:00,
2013-02-16 19:17:00,44.4,7.9,30.30,East,90,0.0,0.0,22,0.00,CLR,FEW,0.00,WeatherDisplay:10.37,2013-02-17 01:17:00,
2013-02-16 19:22:00,44.4,7.9,30.30,East,90,0.0,0.0,22,0.00,CLR,FEW,0.00,WeatherDisplay:10.37,2013-02-17 01:22:00,
2013-02-16 19:27:00,44.4,7.9,30.30,East,90,0.0,0.0,22,0.00,CLR,FEW,0.00,WeatherDisplay:10.37,2013-02-17 01:27:00,
2013-02-16 19:32:00,44.4,7.9,30.30,East,90,0.0,0.0,22,0.00,CLR,FEW,0.00,WeatherDisplay:10.37,2013-02-17 01:32:00,
2013-02-16 19:37:00,44.4,7.9,30.30,East,90,0.0,0.0,22,0.00,CLR,FEW,0.00,WeatherDisplay:10.37,2013-02-17 01:37:00,
2013-02-16 19:42:00,44.4,7.9,30.30,East,90,0.0,0.0,22,0.00,CLR,FEW,0.00,WeatherDisplay:10.37,2013-02-17 01:42:00,
2013-02-16 19:47:00,44.4,7.9,30.30,East,90,0.0,0.0,22,0.00,CLR,FEW,0.00,WeatherDisplay:10.37,2013-02-17 01:47:00,
2013-02-16 19:52:00,44.4,7.9,30.30,East,90,0.0,0.0,22,0.00,CLR,FEW,0.00,WeatherDisplay:10.37,2013-02-17 01:52:00,
2013-02-16 19:57:00,44.4,7.9,30.33,East,90,0.0,0.0,22,0.00,CLR,FEW,0.00,WeatherDisplay:10.37,2013-02-17 01:57:00,
2013-02-16 20:02:00,44.4,7.9,30.33,East,90,0.0,0.0,22,0.00,CLR,FEW,0.00,WeatherDisplay:10.37,2013-02-17 02:02:00,
2013-02-16 20:07:00,44.4,7.9,30.33,East,90,0.0,0.0,22,0.00,CLR,FEW,0.00,WeatherDisplay:10.37,2013-02-17 02:07:00,
2013-02-16 20:12:00,44.4,7.9,30.33,East,90,0.0,0.0,22,0.00,CLR,FEW,0.00,WeatherDisplay:10.37,2013-02-17 02:12:00,
2013-02-16 20:17:00,44.4,7.9,30.33,East,90,0.0,0.0,22,0.00,CLR,FEW,0.00,WeatherDisplay:10.37,2013-02-17 02:17:00,
2013-02-16 20:22:00,44.4,7.9,30.33,East,90,0.0,0.0,22,0.00,CLR,FEW,0.00,WeatherDisplay:10.37,2013-02-17 02:22:00,
2013-02-16 20:27:00,39.9,10.2,30.33,East,90,0.0,0.0,29,0.00,CLR,FEW,0.00,WeatherDisplay:10.37,2013-02-17 02:27:00,
2013-02-16 20:32:00,39.7,10.0,30.33,East,90,0.0,0.0,29,0.00,CLR,FEW,0.00,WeatherDisplay:10.37,2013-02-17 02:32:00,
2013-02-16 20:37:00,39.7,10.0,30.33,East,90,0.0,0.0,29,0.00,CLR,FEW,0.00,WeatherDisplay:10.37,2013-02-17 02:37:00,
2013-02-16 20:42:00,39.4,9.7,30.33,East,90,0.0,0.0,29,0.00,CLR,FEW,0.00,WeatherDisplay:10.37,2013-02-17 02:42:00,
2013-02-16 20:47:00,39.4,9.7,30.33,East,90,0.0,0.0,29,0.00,CLR,FEW,0.00,WeatherDisplay:10.37,2013-02-17 02:47:00,
2013-02-16 20:52:00,39.4,9.7,30.33,East,90,0.0,0.0,29,0.00,CLR,FEW,0.00,WeatherDisplay:10.37,2013-02-17 02:52:00,
2013-02-16 20:57:00,39.4,9.7,30.33,East,90,0.0,0.0,29,0.00,CLR,FEW,0.00,WeatherDisplay:10.37,2013-02-17 02:57:00,
2013-02-16 21:02:00,39.4,9.7,30.33,East,90,0.0,0.0,29,0.00,CLR,FEW,0.00,WeatherDisplay:10.37,2013-02-17 03:02:00,
2013-02-16 21:07:00,39.4,9.7,30.33,East,90,0.0,0.0,29,0.00,CLR,FEW,0.00,WeatherDisplay:10.37,2013-02-17 03:07:00,
2013-02-16 21:12:00,38.8,10.0,30.33,East,90,0.0,0.0,30,0.00,CLR,FEW,0.00,WeatherDisplay:10.37,2013-02-17 03:12:00,
2013-02-16 21:17:00,38.8,10.0,30.33,East,90,0.0,0.0,30,0.00,CLR,FEW,0.00,WeatherDisplay:10.37,2013-02-17 03:17:00,
2013-02-16 21:22:00,38.7,9.8,30.33,East,90,0.0,0.0,30,0.00,CLR,FEW,0.00,WeatherDisplay:10.37,2013-02-17 03:22:00,
2013-02-16 21:27:00,38.3,9.5,30.33,East,90,0.0,0.0,30,0.00,CLR,FEW,0.00,WeatherDisplay:10.37,2013-02-17 03:27:00,
2013-02-16 21:32:00,38.1,9.4,30.33,East,90,0.0,0.0,30,0.00,CLR,FEW,0.00,WeatherDisplay:10.37,2013-02-17 03:32:00,
2013-02-16 21:37:00,38.1,10.1,30.33,East,90,0.0,0.0,31,0.00,CLR,FEW,0.00,WeatherDisplay:10.37,2013-02-17 03:37:00,
2013-02-16 21:42:00,37.9,9.9,30.33,East,90,0.0,0.0,31,0.00,CLR,FEW,0.00,WeatherDisplay:10.37,2013-02-17 03:42:00,
2013-02-16 21:47:00,37.8,9.8,30.33,East,90,0.0,0.0,31,0.00,CLR,FEW,0.00,WeatherDisplay:10.37,2013-02-17 03:47:00,
2013-02-16 21:52:00,37.8,10.5,30.33,East,90,0.0,0.0,32,0.00,CLR,FEW,0.00,WeatherDisplay:10.37,2013-02-17 03:52:00,
2013-02-16 21:57:00,37.2,9.3,30.33,East,90,0.0,0.0,31,0.00,CLR,FEW,0.00,WeatherDisplay:10.37,2013-02-17 03:57:00,
2013-02-16 22:02:00,37.2,10.0,30.33,East,90,0.0,0.0,32,0.00,CLR,FEW,0.00,WeatherDisplay:10.37,2013-02-17 04:02:00,
2013-02-16 22:07:00,37.2,10.0,30.33,East,90,0.0,0.0,32,0.00,CLR,FEW,0.00,WeatherDisplay:10.37,2013-02-17 04:07:00,
2013-02-16 22:12:00,37.2,10.7,30.33,East,90,0.0,0.0,33,0.00,CLR,FEW,0.00,WeatherDisplay:10.37,2013-02-17 04:12:00,
2013-02-16 22:17:00,37.2,10.7,30.33,East,90,0.0,0.0,33,0.00,CLR,FEW,0.00,WeatherDisplay:10.37,2013-02-17 04:17:00,
2013-02-16 22:22:00,37.0,11.2,30.33,East,90,0.0,0.0,34,0.00,CLR,FEW,0.00,WeatherDisplay:10.37,2013-02-17 04:22:00,
2013-02-16 22:27:00,36.9,11.1,30.33,East,90,0.0,0.0,34,0.00,CLR,FEW,0.00,WeatherDisplay:10.37,2013-02-17 04:27:00,
2013-02-16 22:32:00,36.5,10.1,30.33,East,90,0.0,0.0,33,0.00,CLR,FEW,0.00,WeatherDisplay:10.37,2013-02-17 04:32:00,
2013-02-16 22:37:00,36.5,10.7,30.33,East,90,0.0,0.0,34,0.00,CLR,FEW,0.00,WeatherDisplay:10.37,2013-02-17 04:37:00,
2013-02-16 22:42:00,36.5,10.7,30.33,East,90,0.0,0.0,34,0.00,CLR,FEW,0.00,WeatherDisplay:10.37,2013-02-17 04:42:00,
2013-02-16 22:47:00,36.5,11.4,30.33,East,90,0.0,0.0,35,0.00,CLR,FEW,0.00,WeatherDisplay:10.37,2013-02-17 04:47:00,
2013-02-16 22:52:00,36.5,12.0,30.33,East,90,0.0,0.0,36,0.00,CLR,FEW,0.00,WeatherDisplay:10.37,2013-02-17 04:52:00,
2013-02-16 22:57:00,36.5,12.7,30.33,East,90,0.0,0.0,37,0.00,CLR,FEW,0.00,WeatherDisplay:10.37,2013-02-17 04:57:00,
2013-02-16 23:00:00,36.3,12.5,30.33,East,90,0.0,0.0,37,0.00,CLR,FEW,0.00,WeatherDisplay:10.37,2013-02-17 05:00:00,
2013-02-16 23:05:00,36.1,12.9,30.33,East,90,0.0,0.0,38,0.00,CLR,FEW,0.00,WeatherDisplay:10.37,2013-02-17 05:05:00,
2013-02-16 23:10:00,36.1,12.3,30.33,East,90,0.0,0.0,37,0.00,CLR,FEW,0.00,WeatherDisplay:10.37,2013-02-17 05:10:00,
2013-02-16 23:15:00,36.3,13.1,30.33,East,90,0.0,0.0,38,0.00,CLR,FEW,0.00,WeatherDisplay:10.37,2013-02-17 05:15:00,
2013-02-16 23:20:00,36.0,12.8,30.33,East,90,0.0,0.0,38,0.00,CLR,FEW,0.00,WeatherDisplay:10.37,2013-02-17 05:20:00,
2013-02-16 23:25:00,35.8,13.2,30.30,East,90,0.0,0.0,39,0.00,CLR,FEW,0.00,WeatherDisplay:10.37,2013-02-17 05:25:00,
2013-02-16 23:30:00,35.6,13.0,30.30,East,90,0.0,0.0,39,0.00,CLR,FEW,0.00,WeatherDisplay:10.37,2013-02-17 05:30:00,
2013-02-16 23:35:00,35.6,13.0,30.30,East,90,0.0,0.0,39,0.00,CLR,FEW,0.00,WeatherDisplay:10.37,2013-02-17 05:35:00,
2013-02-16 23:40:00,35.6,13.0,30.33,East,90,0.0,0.0,39,0.00,CLR,FEW,0.00,WeatherDisplay:10.37,2013-02-17 05:40:00,
2013-02-16 23:45:00,35.6,13.0,30.33,East,90,0.0,0.0,39,0.00,CLR,FEW,0.00,WeatherDisplay:10.37,2013-02-17 05:45:00,
2013-02-16 23:50:00,35.6,13.0,30.33,East,90,0.0,0.0,39,0.00,CLR,FEW,0.00,WeatherDisplay:10.37,2013-02-17 05:50:00,
2013-02-16 23:55:00,35.6,13.0,30.33,East,90,0.0,0.0,39,0.00,CLR,FEW,0.00,WeatherDisplay:10.37,2013-02-17 05:55:00,